TimeEDT,TemperatureF,Dew PointF,Humidity,Sea Level PressureIn,VisibilityMPH,Wind Direction,Wind SpeedMPH,Gust SpeedMPH,PrecipitationIn,Events,Conditions,WindDirDegrees,DateUTC
12:53 AM,84.9,77.0,77,30.14,10.0,East,9.2,-,N/A,,Unknown,100,2013-07-30 04:53:00
1:53 AM,84.9,77.0,77,30.13,10.0,East,6.9,-,N/A,,Unknown,90,2013-07-30 05:53:00
2:53 AM,84.9,77.0,77,30.12,10.0,East,6.9,-,N/A,,Unknown,100,2013-07-30 06:53:00
3:44 AM,84.2,75.2,74,30.11,10.0,East,5.8,-,0.00,Thunderstorm,Unknown,80,2013-07-30 07:44:00
3:53 AM,84.0,75.0,74,30.11,10.0,East,6.9,-,0.00,,Unknown,80,2013-07-30 07:53:00
4:06 AM,84.2,75.2,74,30.10,10.0,ESE,6.9,-,N/A,Thunderstorm,Unknown,110,2013-07-30 08:06:00
4:31 AM,84.2,75.2,74,30.11,2.5,SE,9.2,-,0.06,Rain-Thunderstorm,Light Rain,140,2013-07-30 08:31:00
4:39 AM,80.6,73.4,79,30.11,3.0,South,6.9,20.7,0.12,Rain-Thunderstorm,Heavy Rain,180,2013-07-30 08:39:00
4:44 AM,80.6,73.4,79,30.10,3.0,Calm,Calm,-,0.12,Rain,Light Rain,0,2013-07-30 08:44:00
4:53 AM,80.1,75.0,85,30.11,9.0,NE,4.6,-,0.13,Rain-Thunderstorm,Light Rain,50,2013-07-30 08:53:00
5:18 AM,78.8,73.4,83,30.12,2.5,NNE,6.9,-,0.09,Rain-Thunderstorm,Light Thunderstorms and Rain,20,2013-07-30 09:18:00
5:25 AM,78.8,73.4,83,30.12,10.0,Calm,Calm,-,0.09,Thunderstorm,Unknown,0,2013-07-30 09:25:00
5:37 AM,78.8,73.4,83,30.11,4.0,NNW,5.8,-,N/A,Rain,Light Rain,340,2013-07-30 09:37:00
5:53 AM,78.1,73.9,87,30.10,7.0,North,5.8,-,N/A,Rain-Thunderstorm,Light Rain,10,2013-07-30 09:53:00
6:02 AM,78.8,73.4,83,30.10,10.0,NNE,3.5,-,0.00,,Unknown,30,2013-07-30 10:02:00
6:53 AM,79.0,75.0,88,30.12,10.0,NNE,3.5,-,N/A,,Unknown,20,2013-07-30 10:53:00
7:36 AM,84.2,75.2,74,30.12,10.0,East,6.9,-,N/A,Thunderstorm,Clear,80,2013-07-30 11:36:00
7:51 AM,84.2,75.2,74,30.12,10.0,East,6.9,-,N/A,,Clear,90,2013-07-30 11:51:00
7:53 AM,84.9,75.9,74,30.13,10.0,East,4.6,-,N/A,,Clear,90,2013-07-30 11:53:00
8:53 AM,87.1,77.0,72,30.15,10.0,East,9.2,-,N/A,,Partly Cloudy,90,2013-07-30 12:53:00
9:53 AM,87.1,77.0,72,30.17,10.0,ESE,8.1,-,N/A,,Scattered Clouds,110,2013-07-30 13:53:00
10:53 AM,88.0,77.0,70,30.17,10.0,East,13.8,-,N/A,,Scattered Clouds,80,2013-07-30 14:53:00
11:53 AM,89.1,75.9,65,30.17,10.0,East,11.5,-,N/A,,Clear,90,2013-07-30 15:53:00
12:53 PM,89.1,75.9,65,30.16,10.0,ESE,13.8,-,N/A,,Partly Cloudy,110,2013-07-30 16:53:00
1:53 PM,89.1,75.9,65,30.15,10.0,East,11.5,-,N/A,,Scattered Clouds,90,2013-07-30 17:53:00
2:53 PM,89.1,75.9,65,30.14,10.0,ENE,13.8,-,N/A,,Clear,70,2013-07-30 18:53:00
3:53 PM,90.0,77.0,65,30.12,10.0,ENE,11.5,-,N/A,,Partly Cloudy,70,2013-07-30 19:53:00
4:53 PM,89.1,75.9,65,30.11,10.0,East,13.8,-,N/A,,Partly Cloudy,80,2013-07-30 20:53:00
5:53 PM,-9999,-9999,N/A,30.10,10.0,East,11.5,-,N/A,,Unknown,90,2013-07-30 21:53:00
6:53 PM,-9999,-9999,N/A,30.10,10.0,East,8.1,-,N/A,,Unknown,80,2013-07-30 22:53:00
8:53 PM,-9999,-9999,N/A,30.13,-9999.0,East,10.4,-,N/A,,Unknown,90,2013-07-31 00:53:00
9:53 PM,-9999,-9999,N/A,30.14,-9999.0,East,8.1,-,N/A,,Unknown,90,2013-07-31 01:53:00
11:53 PM,-9999,-9999,N/A,30.12,-9999.0,East,8.1,-,N/A,,Unknown,90,2013-07-31 03:53:00